Location: Newark
(35.2672°N, 80.7344°W)
Time: 18:51:26
(UTC+00:00)

ISS - Visible Passes

Search period start: 15 December 2019 00:00
Search period end: 25 December 2019 00:00
Orbit: 411 x 421 km, 51.6° (Epoch: 16 December)

Date Brightness Start Highest point End Pass type
(mag) Time Alt. Az. Time Alt. Az. Time Alt. Az.
15 Dec 0.2 22:53:14 10° WSW 22:53:55 10° SW 22:54:36 10° SW visible
19 Dec -0.5 11:30:22 10° SSE 11:32:29 16° SE 11:34:37 10° E visible
21 Dec -3.0 11:28:40 10° SSW 11:31:54 54° SE 11:35:08 10° ENE visible
22 Dec -1.7 10:40:35 10° S 10:43:26 27° SE 10:46:18 10° ENE visible
23 Dec -0.5 09:55:49 14° ESE 09:55:49 14° ESE 09:56:56 10° E visible
23 Dec -3.4 11:28:49 14° WSW 11:31:28 43° NW 11:34:39 10° NE visible
24 Dec -3.4 10:43:27 57° NE 10:43:27 57° NE 10:46:11 10° NE visible
